When you browse on this site, cookies collect data to enhance your experience and personalize the content and advertising you see.
Visit our Privacy Policy to learn more. By continuing to use the site, you agree to this use of cookies and data.
  • In Sweden
  • List of Countries
  • For 7 days
  • Water Temperature
  • Satellite Maps
  • Weather Map
  • Weather Widgets
  • user-avatar
    Login

    Hourly Weather Naftalan

    Today, 19 July, Friday

    Time Temperature Precipitation Wind Pressure Humidity
    00:00 +26°C° 0 mm 1 mps 756 mmHg 74%
    01:00 +26°C° 0 mm 1 mps 756 mmHg 75%
    02:00 +26°C° 0 mm 2 mps 756 mmHg 75%
    03:00 +26°C° 0 mm 2 mps 756 mmHg 75%
    04:00 +26°C° 0 mm 2 mps 756 mmHg 71%
    05:00 +27°C° 0 mm 2 mps 757 mmHg 67%
    06:00 +28°C° 0 mm 2 mps 757 mmHg 63%
    07:00 +29°C° 0 mm 2 mps 757 mmHg 57%
    08:00 +31°C° 0 mm 3 mps 758 mmHg 51%
    09:00 +33°C° 0 mm 3 mps 758 mmHg 44%
    10:00 +34°C° 0 mm 4 mps 758 mmHg 43%
    11:00 +34°C° 0 mm 4 mps 758 mmHg 42%
    12:00 +35°C° 0 mm 4 mps 758 mmHg 40%
    13:00 +35°C° 0 mm 4 mps 758 mmHg 41%
    14:00 +35°C° 0 mm 4 mps 757 mmHg 42%
    15:00 +35°C° 0 mm 4 mps 757 mmHg 43%
    16:00 +34°C° 0 mm 4 mps 757 mmHg 47%
    17:00 +33°C° 0 mm 3 mps 758 mmHg 50%
    18:00 +31°C° 0 mm 2 mps 758 mmHg 54%
    19:00 +30°C° 0 mm 3 mps 759 mmHg 58%
    20:00 +29°C° 0 mm 3 mps 759 mmHg 62%
    21:00 +28°C° 0 mm 3 mps 760 mmHg 66%
    22:00 +28°C° 0 mm 3 mps 760 mmHg 64%
    23:00 +28°C° 0 mm 3 mps 760 mmHg 63%

    Tomorrow, 20 July, Saturday

    Time Temperature Precipitation Wind Pressure Humidity
    00:00 +28°C° 0 mm 2 mps 760 mmHg 61%
    01:00 +28°C° 0 mm 2 mps 760 mmHg 60%
    02:00 +28°C° 0 mm 2 mps 760 mmHg 59%
    03:00 +27°C° 0 mm 2 mps 760 mmHg 58%
    04:00 +28°C° 0 mm 2 mps 761 mmHg 57%
    05:00 +29°C° 0 mm 2 mps 761 mmHg 55%
    06:00 +30°C° 0 mm 3 mps 762 mmHg 53%
    07:00 +31°C° 0 mm 3 mps 762 mmHg 48%
    08:00 +34°C° 0 mm 2 mps 762 mmHg 43%
    09:00 +35°C° 0 mm 2 mps 762 mmHg 38%
    10:00 +36°C° 0 mm 3 mps 762 mmHg 37%
    11:00 +36°C° 0 mm 3 mps 762 mmHg 36%
    12:00 +37°C° 0 mm 4 mps 763 mmHg 35%
    13:00 +37°C° 0 mm 5 mps 762 mmHg 36%
    14:00 +37°C° 0 mm 5 mps 762 mmHg 37%
    15:00 +36°C° 0 mm 6 mps 762 mmHg 39%
    16:00 +35°C° 0 mm 5 mps 762 mmHg 42%
    17:00 +34°C° 0 mm 5 mps 762 mmHg 45%
    18:00 +33°C° 0 mm 4 mps 763 mmHg 48%
    19:00 +31°C° 0 mm 3 mps 763 mmHg 52%
    20:00 +30°C° 0 mm 3 mps 763 mmHg 56%
    21:00 +29°C° 0 mm 2 mps 764 mmHg 61%
    22:00 +28°C° 0 mm 2 mps 764 mmHg 61%
    23:00 +28°C° 0 mm 1 mps 764 mmHg 61%

    Day after tomorrow, 21 July, Sunday

    Time Temperature Precipitation Wind Pressure Humidity
    00:00 +28°C° 0 mm 1 mps 764 mmHg 61%
    01:00 +27°C° 0 mm 1 mps 764 mmHg 62%
    02:00 +27°C° 0 mm 1 mps 764 mmHg 63%
    03:00 +27°C° 0 mm 1 mps 764 mmHg 64%
    04:00 +27°C° 0 mm 1 mps 764 mmHg 61%
    05:00 +28°C° 0 mm 1 mps 764 mmHg 58%
    06:00 +29°C° 0 mm 1 mps 764 mmHg 55%
    07:00 +31°C° 0 mm 2 mps 764 mmHg 51%
    08:00 +33°C° 0 mm 3 mps 764 mmHg 47%
    09:00 +34°C° 0 mm 4 mps 764 mmHg 43%
    10:00 +35°C° 0 mm 4 mps 764 mmHg 42%
    11:00 +35°C° 0 mm 4 mps 763 mmHg 40%
    12:00 +36°C° 0 mm 5 mps 763 mmHg 39%
    13:00 +35°C° 0 mm 5 mps 762 mmHg 39%
    14:00 +35°C° 0 mm 5 mps 761 mmHg 40%
    15:00 +35°C° 0 mm 5 mps 761 mmHg 40%
    16:00 +34°C° 0 mm 5 mps 761 mmHg 44%
    17:00 +33°C° 0 mm 4 mps 761 mmHg 48%
    18:00 +32°C° 0 mm 4 mps 761 mmHg 52%
    19:00 +30°C° 0 mm 3 mps 761 mmHg 58%
    20:00 +28°C° 0 mm 2 mps 761 mmHg 65%
    21:00 +27°C° 0 mm 2 mps 762 mmHg 71%
    22:00 +27°C° 0 mm 2 mps 761 mmHg 71%
    23:00 +27°C° 0 mm 2 mps 761 mmHg 71%

    22 July, Monday

    Time Temperature Precipitation Wind Pressure Humidity
    00:00 +27°C° 0 mm 2 mps 761 mmHg 71%
    01:00 +27°C° 0 mm 2 mps 761 mmHg 72%
    02:00 +26°C° 0 mm 2 mps 761 mmHg 72%
    03:00 +26°C° 0 mm 2 mps 760 mmHg 72%
    04:00 +27°C° 0 mm 2 mps 760 mmHg 70%
    05:00 +27°C° 0 mm 2 mps 760 mmHg 67%
    06:00 +28°C° 0 mm 2 mps 760 mmHg 64%
    07:00 +30°C° 0 mm 2 mps 760 mmHg 57%
    08:00 +31°C° 0 mm 3 mps 760 mmHg 50%
    09:00 +34°C° 0 mm 3 mps 760 mmHg 43%
    10:00 +34°C° 0 mm 4 mps 760 mmHg 41%
    11:00 +35°C° 0 mm 4 mps 759 mmHg 40%
    12:00 +36°C° 0 mm 4 mps 759 mmHg 38%
    13:00 +35°C° 0 mm 4 mps 758 mmHg 40%
    14:00 +35°C° 0 mm 5 mps 758 mmHg 41%
    15:00 +35°C° 0 mm 5 mps 757 mmHg 42%
    16:00 +34°C° 0 mm 4 mps 757 mmHg 47%
    17:00 +33°C° 0 mm 4 mps 757 mmHg 51%
    18:00 +32°C° 0 mm 4 mps 757 mmHg 55%
    19:00 +30°C° 0 mm 3 mps 757 mmHg 60%
    20:00 +29°C° 0 mm 3 mps 757 mmHg 64%
    21:00 +28°C° 0 mm 3 mps 758 mmHg 68%
    22:00 +28°C° 0 mm 3 mps 757 mmHg 69%
    23:00 +27°C° 0 mm 2 mps 757 mmHg 70%

    23 July, Tuesday

    Time Temperature Precipitation Wind Pressure Humidity
    00:00 +27°C° 0 mm 2 mps 757 mmHg 70%
    01:00 +27°C° 0 mm 3 mps 757 mmHg 69%
    02:00 +27°C° 0 mm 4 mps 757 mmHg 67%
    03:00 +27°C° 0 mm 5 mps 757 mmHg 65%
    04:00 +28°C° 0 mm 5 mps 757 mmHg 62%
    05:00 +28°C° 0 mm 5 mps 757 mmHg 60%
    06:00 +29°C° 0 mm 5 mps 757 mmHg 57%
    07:00 +30°C° 0 mm 5 mps 757 mmHg 51%
    08:00 +33°C° 0 mm 6 mps 757 mmHg 45%
    09:00 +34°C° 0 mm 6 mps 758 mmHg 40%
    10:00 +35°C° 0 mm 7 mps 757 mmHg 40%
    11:00 +35°C° 0 mm 7 mps 757 mmHg 40%
    12:00 +36°C° 0 mm 7 mps 757 mmHg 40%
    13:00 +35°C° 0 mm 8 mps 756 mmHg 41%
    14:00 +35°C° 0 mm 8 mps 756 mmHg 43%
    15:00 +34°C° 0 mm 8 mps 755 mmHg 44%
    16:00 +33°C° 0 mm 8 mps 755 mmHg 48%
    17:00 +32°C° 0 mm 7 mps 755 mmHg 51%
    18:00 +30°C° 0 mm 7 mps 755 mmHg 55%
    19:00 +30°C° 0 mm 6 mps 756 mmHg 58%
    20:00 +29°C° 0 mm 5 mps 756 mmHg 61%
    21:00 +28°C° 0 mm 4 mps 757 mmHg 64%
    22:00 +28°C° 0 mm 4 mps 756 mmHg 65%
    23:00 +28°C° 0 mm 4 mps 756 mmHg 66%

    24 July, Wednesday

    Time Temperature Precipitation Wind Pressure Humidity
    00:00 +28°C° 0 mm 4 mps 756 mmHg 67%
    01:00 +27°C° 0 mm 4 mps 756 mmHg 67%
    02:00 +27°C° 0 mm 3 mps 756 mmHg 67%
    03:00 +27°C° 0 mm 3 mps 756 mmHg 67%
    04:00 +27°C° 0 mm 4 mps 756 mmHg 63%
    05:00 +28°C° 0 mm 4 mps 756 mmHg 58%
    06:00 +29°C° 0 mm 4 mps 756 mmHg 54%
    07:00 +30°C° 0 mm 3 mps 756 mmHg 49%
    08:00 +33°C° 0 mm 3 mps 756 mmHg 45%
    09:00 +34°C° 0 mm 3 mps 756 mmHg 40%
    10:00 +35°C° 0 mm 3 mps 756 mmHg 39%
    11:00 +36°C° 0 mm 4 mps 756 mmHg 38%
    12:00 +37°C° 0 mm 4 mps 755 mmHg 37%
    13:00 +36°C° 0 mm 5 mps 755 mmHg 38%
    14:00 +36°C° 0 mm 5 mps 754 mmHg 40%
    15:00 +35°C° 0 mm 5 mps 754 mmHg 41%
    16:00 +34°C° 0 mm 5 mps 754 mmHg 43%
    17:00 +33°C° 0 mm 4 mps 754 mmHg 45%
    18:00 +33°C° 0 mm 4 mps 754 mmHg 48%
    19:00 +32°C° 0 mm 4 mps 755 mmHg 51%
    20:00 +30°C° 0 mm 3 mps 755 mmHg 54%
    21:00 +29°C° 0 mm 3 mps 755 mmHg 57%
    22:00 +28°C° 0 mm 2 mps 755 mmHg 57%
    23:00 +28°C° 0 mm 2 mps 755 mmHg 58%
    Show more